This is the latest recevied weather packets stored in our database for station/object W5ITZ. If no packets are shown the sender has not sent any weather packets the latest 10 day(s).
| Time | Temp. | Humidity | Pressure | Rain* | Wind** | Luminosity | Snow |
|---|---|---|---|---|---|---|---|
| 1787786491 | 35° C | 50% | 1013.3 hPa | 0 mm | - | 171 W/m² | - |
| 1787786186 | 35° C | 48% | 1013.1 hPa | 0 mm | - | 182 W/m² | - |
| 1787785881 | 35° C | 48% | 1013.4 hPa | 0 mm | - | 195 W/m² | - |
| 1787785577 | 35.56° C | 50% | 1013.1 hPa | 0 mm | - | 209 W/m² | - |
| 1787785272 | 35.56° C | 47% | 1013.2 hPa | 0 mm | - | 228 W/m² | - |
| 1787784971 | 35.56° C | 44% | 1013.3 hPa | 0 mm | - | 247 W/m² | - |
| 1787784670 | 36.11° C | 44% | 1013.2 hPa | 0 mm | - | 263 W/m² | - |
| 1787784369 | 36.11° C | 44% | 1013.2 hPa | 0 mm | - | 272 W/m² | - |
| 1787784064 | 36.11° C | 46% | 1013.3 hPa | 0 mm | - | 285 W/m² | - |
| 1787783761 | 35.56° C | 47% | 1013 hPa | 0 mm | - | 300 W/m² | - |
| 1787783460 | 36.11° C | 47% | 1013.3 hPa | 0 mm | - | 323 W/m² | - |
| 1787783156 | 36.11° C | 48% | 1012.9 hPa | 0 mm | - | 338 W/m² | - |
| 1787782851 | 36.11° C | 48% | 1013 hPa | 0 mm | - | 344 W/m² | - |
| 1787782550 | 36.11° C | 47% | 1013.3 hPa | 0 mm | - | 371 W/m² | - |
| 1787782246 | 36.67° C | 46% | 1013.1 hPa | 0 mm | - | 404 W/m² | - |
| 1787781942 | 36.11° C | 47% | 1013.2 hPa | 0 mm | - | 434 W/m² | - |
| 1787781637 | 36.67° C | 47% | 1013.4 hPa | 0 mm | - | 454 W/m² | - |
| 1787781334 | 36.11° C | 47% | 1013.5 hPa | 0 mm | - | 472 W/m² | - |
| 1787781033 | 36.67° C | 46% | 1013.4 hPa | 0 mm | - | 486 W/m² | - |
| 1787780736 | 36.67° C | 46% | 1013.3 hPa | 0 mm | - | 509 W/m² | - |
| 1787780432 | 36.67° C | 46% | 1013.2 hPa | 0 mm | - | 523 W/m² | - |
| 1787780128 | 36.67° C | 46% | 1013.3 hPa | 0 mm | - | 571 W/m² | - |
| 1787779824 | 37.22° C | 46% | 1013.4 hPa | 0 mm | - | 579 W/m² | - |
| 1787779523 | 36.67° C | 47% | 1013.6 hPa | 0 mm | - | 631 W/m² | - |
| 1787779218 | 36.67° C | 47% | 1013.6 hPa | 0 mm | - | 620 W/m² | - |
* Rain latest hour (hover to see other rain measurements)
** Current wind speed in m/s (hover to see current wind gust speed)